WB7TUJ Weather Reports


Display with metric or nautical units.
time (UTC)temp
F
wind
direction
speed
MPH
gust
MPH
rain 1hr
in
rain 24hr
in
rain mn
in
humidity
%
barometer
mb
20260901160005 84 82 0.0 6.0 0.00 0.32 0.00 57 970.5
20260901154502 84 76 0.0 6.0 0.00 0.32 0.00 57 970.4
20260901153102 83 87 0.0 0.0 0.00 0.32 0.00 59 970.3
20260901151558 83 82 0.0 0.0 0.00 0.32 0.00 62 970.3
20260901150058 82 82 0.0 0.0 0.00 0.32 0.00 65 970.3
20260901144552 81 82 0.0 0.0 0.00 0.37 0.00 67 970.3
20260901143048 80 82 0.0 0.0 0.00 0.37 0.00 69 970.1
20260901141547 79 82 0.0 0.0 0.00 0.37 0.00 71 970.2
20260901140047 79 82 0.0 0.0 0.00 0.37 0.00 72 970.2
20260901134600 78 82 0.0 0.0 0.00 0.39 0.00 74 970.1
20260901133045 77 82 0.0 0.0 0.00 0.39 0.00 75 969.9
20260901131543 77 82 0.0 0.0 0.00 0.39 0.00 75 969.6
20260901130042 76 82 0.0 0.0 0.00 0.39 0.00 76 969.7
20260901124545 76 82 0.0 0.0 0.00 0.39 0.00 75 969.7
20260901123041 76 82 0.0 0.0 0.00 0.39 0.00 75 969.5
20260901121539 76 82 0.0 0.0 0.00 0.39 0.00 75 969.4
20260901120035 77 82 0.0 0.0 0.00 0.39 0.00 75 969.2
20260901114550 77 82 0.0 0.0 0.00 0.39 0.00 74 969.2
20260901113032 77 82 0.0 0.0 0.00 0.39 0.00 73 969.0
20260901111532 78 82 0.0 0.0 0.00 0.39 0.00 73 968.9
20260901110031 78 82 0.0 0.0 0.00 0.39 0.00 73 968.9
20260901104530 77 82 0.0 0.0 0.00 0.39 0.00 73 969.0
20260901103029 77 82 0.0 0.0 0.00 0.39 0.00 73 969.2
20260901101528 78 82 0.0 0.0 0.00 0.39 0.00 73 969.2
20260901100028 78 82 0.0 0.0 0.00 0.39 0.00 73 969.1
20260901094528 78 82 0.0 0.0 0.00 0.41 0.00 73 969.2
20260901093027 77 82 0.0 0.0 0.00 0.41 0.00 73 969.3
20260901091526 78 82 0.0 0.0 0.00 0.41 0.00 72 969.3
20260901090045 78 82 0.0 0.0 0.00 0.41 0.00 71 969.4
20260901084523 78 82 0.0 0.0 0.00 0.53 0.00 70 969.4
20260901083022 79 82 0.0 0.0 0.00 0.53 0.00 70 969.4
20260901081532 79 82 0.0 0.0 0.00 0.53 0.00 70 969.4
20260901080025 79 82 0.0 0.0 0.00 0.53 0.00 70 969.4
20260901074520 79 82 0.0 0.0 0.00 0.63 0.00 70 969.3
20260901073019 79 82 0.0 0.0 0.00 0.63 0.00 70 969.2
20260901071515 80 82 0.0 0.0 0.00 0.63 0.00 69 969.2
20260901070015 80 82 0.0 0.0 0.00 0.63 0.00 68 969.0
20260901064513 80 82 0.0 0.0 0.00 0.78 0.63 67 969.0
20260901063024 80 82 0.0 0.0 0.00 0.78 0.63 66 968.9
20260901061511 81 82 0.0 0.0 0.00 0.78 0.63 64 968.8
20260901060011 81 82 0.0 0.0 0.00 0.78 0.63 62 968.9
20260901054527 82 82 0.0 0.0 0.00 0.95 0.63 61 968.9
20260901053011 82 82 0.0 0.0 0.00 0.95 0.63 60 968.9
20260901051509 83 82 0.0 0.0 0.00 0.95 0.63 57 968.9
20260901050009 83 82 0.0 0.0 0.00 2.06 0.63 56 968.8
20260901044509 83 82 0.0 0.0 0.00 2.06 0.63 55 968.9
20260901043011 84 82 0.0 0.0 0.00 2.06 0.63 54 968.8
20260901041507 84 82 0.0 0.0 0.00 2.06 0.63 52 968.8
20260901040008 84 82 0.0 0.0 0.00 3.96 0.63 52 968.6
20260901034517 84 82 0.0 0.0 0.00 3.96 0.63 52 968.5
20260901033009 85 82 0.0 0.0 0.00 3.96 0.63 51 968.5
20260901031517 86 82 0.0 0.0 0.00 3.96 0.63 48 968.2
20260901030006 86 82 0.0 0.0 0.00 3.96 0.63 48 968.0
20260901024506 86 82 0.0 0.0 0.00 3.96 0.63 48 967.8
20260901023007 86 82 0.0 0.0 0.00 3.96 0.63 48 967.6
20260901021504 86 82 0.0 0.0 0.00 3.96 0.63 48 967.6
20260901020004 86 82 0.0 0.0 0.00 3.96 0.63 47 967.4
20260901014504 86 82 0.0 0.0 0.00 3.96 0.63 47 967.3
20260901013003 86 82 0.0 0.0 0.00 3.96 0.63 46 967.2
20260901011502 87 82 0.0 0.0 0.00 3.96 0.63 46 967.4
20260901010002 87 82 0.0 0.0 0.00 3.96 0.63 46 967.5
20260901004501 87 82 0.0 0.0 0.00 3.96 0.63 46 967.4
20260901003000 87 74 0.0 0.0 0.00 3.96 0.63 47 967.6
20260901001601 88 74 0.0 0.0 0.00 3.96 0.63 47 967.6
20260901000100 88 74 0.0 0.0 0.00 3.96 0.63 47 967.8
20260831234601 87 72 0.0 0.0 0.02 3.97 0.63 47 967.9
20260831233056 87 69 0.0 0.0 0.02 3.97 0.63 48 967.9
20260831231554 86 62 1.0 10.0 0.04 3.97 0.63 49 968.0
20260831230053 86 96 0.0 10.0 0.04 3.97 0.63 51 968.2
20260831224553 86 93 3.0 10.0 0.02 3.95 0.61 51 968.4
20260831223051 86 61 0.0 9.0 0.02 3.95 0.61 52 968.5
20260831221603 85 36 1.0 10.0 0.00 3.93 0.59 54 968.8
20260831220047 84 66 2.0 10.0 0.00 3.93 0.59 55 969.4
20260831214547 85 84 0.0 8.0 0.00 3.98 0.59 56 970.0
20260831213046 84 105 0.0 9.0 0.04 3.98 0.59 58 970.2
20260831211545 84 90 3.0 9.0 0.06 3.98 0.59 57 970.4
20260831210042 83 65 2.0 9.0 0.09 3.98 0.59 60 970.7
20260831204542 82 94 0.0 12.0 0.19 4.05 0.59 63 970.9
20260831203100 81 140 4.0 13.0 0.21 4.01 0.55 66 971.1
20260831201543 80 107 5.0 12.0 0.19 3.99 0.53 67 971.2
20260831200117 80 109 3.0 13.0 0.16 3.96 0.50 68 971.1
20260831194540 79 141 5.0 11.0 0.06 3.86 0.40 69 971.3
20260831193040 78 107 3.0 11.0 0.00 3.80 0.34 71 971.4
20260831191538 78 128 5.0 13.0 0.01 3.80 0.34 73 971.4
20260831190041 78 132 3.0 11.0 0.02 3.80 0.34 74 971.4
20260831184544 78 115 2.0 9.0 0.02 4.01 0.34 71 971.5
20260831183037 78 115 2.0 12.0 0.02 4.01 0.34 71 971.4
20260831181545 78 133 3.0 11.0 0.01 4.01 0.33 78 971.5
20260831180037 77 87 1.0 8.0 0.00 4.00 0.32 79 971.7
20260831174547 77 86 1.0 9.0 0.00 4.03 0.32 81 972.0
20260831173035 76 72 2.0 10.0 0.00 4.03 0.32 84 972.2
20260831171533 75 67 0.0 8.0 0.00 4.03 0.32 85 972.1
20260831170038 75 65 0.0 8.0 0.01 4.03 0.32 86 971.8
20260831164531 75 61 0.0 7.0 0.01 4.28 0.32 87 971.8
20260831163131 74 41 3.0 7.0 0.01 4.28 0.32 86 971.7
20260831161531 74 50 0.0 7.0 0.01 4.28 0.32 86 971.7